Theta_e
318 310 329 330 333 329 329 331 331 337 341 336 331 331 332 330 335 340 336 337 338 331 320 317 317 317 314 312 315 316 316 316 317 317 317 318 318 318 317 318 322 327 328 328 329 330 330 328 330
312 324 328 330 335 335 330 327 328 340 339 336 332 333 331 332 336 336 337 338 337 329 321 318 317 318 316 313 315 317 316 317 317 317 318 320 321 323 324 323 324 328 331 331 331 332 332 332 332
314 322 326 331 335 330 331 332 336 338 338 336 334 332 331 333 337 337 337 340 337 331 323 319 317 319 318 313 315 317 317 317 317 318 318 321 323 325 326 328 329 332 334 334 333 335 334 334 334
324 326 325 333 337 335 332 332 337 339 337 337 336 332 331 332 333 337 337 336 338 335 328 321 318 318 319 315 314 317 318 318 318 318 319 321 322 324 327 331 335 336 336 337 337 337 336 335 335
326 326 328 330 331 333 333 333 335 338 337 336 336 332 332 331 335 335 337 335 334 338 332 324 320 319 319 317 314 317 318 318 318 319 319 321 322 323 325 329 335 337 338 338 339 339 338 335 335
325 326 329 331 331 330 330 330 335 336 336 334 332 332 331 331 333 335 335 335 334 334 338 330 324 321 320 319 315 315 318 319 319 319 320 321 322 323 326 330 333 337 338 338 338 337 336 336 334
331 327 327 327 329 330 330 329 331 331 329 332 331 332 330 330 332 333 335 335 336 334 334 338 331 325 322 321 319 315 317 319 319 320 321 321 323 323 326 325 325 331 333 336 334 336 334 335 331
329 327 327 327 329 330 330 330 327 328 330 332 332 332 331 330 332 332 333 335 335 337 335 338 337 330 326 322 321 320 315 318 320 321 323 323 323 323 324 323 326 328 329 330 330 328 327 327 328
331 329 326 326 327 329 329 329 330 330 330 330 331 330 330 332 333 333 332 331 335 337 335 336 337 335 330 327 322 322 321 317 321 323 326 326 326 323 323 331 335 335 333 329 330 329 328 325 325
334 329 327 325 326 328 329 330 330 331 331 331 332 331 331 331 331 330 330 329 330 330 337 336 337 337 335 332 328 325 325 324 324 327 329 330 328 325 335 335 336 336 335 333 331 330 329 326 324
331 331 327 326 326 328 329 331 332 332 331 331 332 331 329 329 330 330 330 329 329 329 331 339 338 337 337 338 334 332 328 328 326 326 329 328 330 334 339 337 336 335 335 333 331 331 332 327 328
329 329 329 327 328 328 329 331 332 331 330 331 331 331 331 329 328 328 328 330 330 329 328 330 338 339 341 342 339 336 335 335 332 328 328 331 335 338 340 336 336 335 333 333 332 332 330 331 330
325 325 327 330 329 329 330 331 331 330 330 330 330 330 329 329 329 330 331 330 330 329 328 329 331 338 341 344 342 340 339 338 338 337 335 336 337 340 337 334 335 335 334 333 333 332 331 331 331
323 326 326 325 326 328 329 329 329 330 329 329 328 328 328 328 328 330 330 329 330 331 327 326 328 333 340 343 341 340 341 340 340 341 339 339 341 339 335 337 338 335 334 334 333 332 331 331 328
320 321 322 324 326 326 327 328 328 328 328 329 328 328 327 328 329 327 330 328 331 329 328 328 328 331 339 341 341 342 342 342 344 342 341 341 338 334 335 335 336 336 334 334 333 332 331 330 328
321 321 322 322 324 327 327 329 328 328 328 329 328 328 328 327 329 330 329 329 328 329 330 328 332 338 341 341 345 344 343 343 342 338 335 335 334 334 335 335 335 334 335 334 332 331 331 331 330
319 322 321 323 324 326 327 328 328 327 328 328 328 328 328 326 325 328 329 328 329 329 331 335 338 340 341 342 341 343 343 339 335 334 333 333 333 334 336 335 334 334 335 333 331 331 331 331 330
321 322 322 322 324 325 326 326 326 326 326 328 327 328 328 327 325 326 329 328 328 333 332 336 342 342 345 345 343 342 340 337 335 333 334 334 334 335 336 335 334 336 334 331 331 330 330 330 329
319 322 323 323 323 324 324 324 324 325 325 325 326 326 326 326 325 327 329 330 336 336 338 341 345 347 346 346 346 345 338 338 335 335 334 333 336 336 336 334 335 334 333 332 330 331 330 330 329
316 317 318 321 323 322 323 324 325 325 325 325 326 326 327 326 328 329 331 337 337 341 342 343 347 347 346 346 344 342 340 337 335 334 334 335 334 335 335 333 334 334 332 332 331 331 331 330 329
316 316 316 317 320 321 321 321 321 323 325 326 327 326 327 326 326 324 335 337 339 341 340 340 343 346 346 344 342 339 337 337 335 336 336 335 334 334 333 334 333 331 332 332 332 330 330 330 329
316 317 317 319 319 320 320 321 321 322 324 326 327 326 326 326 326 324 337 337 339 340 339 340 345 344 342 340 339 339 338 335 335 334 334 335 335 335 333 332 331 331 331 331 330 329 330 329 328
316 317 317 318 318 318 319 320 321 324 326 326 327 326 326 325 324 324 337 339 340 340 340 342 342 340 340 338 337 337 336 337 335 334 334 335 335 335 333 332 330 330 330 328 329 330 330 329 328
314 317 317 316 316 318 318 320 321 321 322 324 325 324 324 322 324 337 338 339 340 341 341 341 340 338 339 339 337 336 335 336 336 336 335 335 334 333 333 333 331 330 331 330 329 328 329 329 329
312 313 315 318 318 318 317 321 322 322 323 324 324 324 323 324 332 339 339 338 339 340 342 341 339 341 336 339 337 337 337 336 336 334 334 335 335 332 334 333 331 330 330 329 329 329 328 329 329
309 313 315 319 320 318 319 321 320 322 323 323 324 323 323 325 337 338 338 337 338 340 341 340 341 339 337 337 336 335 336 334 334 335 335 335 333 332 334 330 331 330 328 328 329 327 329 328 329
308 310 314 315 318 318 319 319 319 319 320 322 323 325 336 336 338 338 337 337 339 339 339 340 340 339 338 336 335 335 335 336 335 334 334 335 335 335 334 332 333 330 329 330 329 328 329 329 328
315 311 315 315 318 321 320 320 320 320 323 323 326 327 337 338 337 337 336 337 338 338 339 339 339 338 338 335 333 334 334 333 333 333 333 334 333 333 333 333 332 330 330 330 329 329 329 327 326
314 310 311 314 316 320 322 320 320 329 329 325 327 326 338 337 337 337 337 337 338 338 339 340 339 337 336 334 333 334 332 333 332 333 334 335 334 332 331 332 331 330 330 331 329 329 330 328 328
315 313 311 314 318 318 320 321 320 324 328 326 327 327 336 336 337 336 337 336 337 337 339 339 337 335 334 332 333 333 334 333 333 333 333 334 334 333 332 330 330 330 329 330 330 331 331 330 327
Wind_Speed
5 1 2 4 3 2 4 7 9 8 9 8 4 7 3 5 6 4 20 28 22 26 31 29 27 25 24 22 20 17 16 14 12 10 9 8 7 7 6 6 5 5 5 4 3 2 2 2 3
3 2 2 2 2 1 5 8 4 6 7 12 8 4 5 6 7 10 17 25 25 25 30 30 28 26 25 23 21 19 18 15 13 10 8 7 7 6 5 5 6 6 6 6 5 4 4 4 4
4 2 1 3 4 5 4 2 4 2 2 3 10 0 5 7 6 8 32 31 26 24 28 29 30 27 25 24 23 21 19 16 14 12 10 8 6 5 4 5 6 8 7 7 7 6 6 6 6
5 2 3 2 8 12 11 18 3 3 9 14 23 1 6 5 5 18 32 30 26 22 22 27 30 28 27 26 25 23 21 19 16 14 11 10 8 5 4 6 9 9 9 9 10 10 9 9 8
4 3 3 5 8 13 17 17 10 5 4 10 25 5 7 7 25 20 30 30 24 21 21 24 29 29 28 28 27 25 24 22 19 16 14 12 9 6 6 8 9 9 11 11 11 11 13 12 12
2 3 3 7 12 17 17 16 9 9 10 7 2 8 5 17 20 17 19 29 26 23 23 23 26 28 29 28 28 27 25 24 22 20 17 15 12 10 8 9 9 10 12 12 11 11 12 12 13
2 2 6 9 15 18 15 10 7 7 6 6 3 5 4 7 16 18 18 19 26 32 31 30 28 29 30 31 30 28 26 25 24 23 21 18 15 12 12 11 10 12 12 12 11 11 11 12 12
3 2 5 8 12 18 15 14 8 3 10 4 4 1 5 6 19 15 17 23 24 36 37 36 34 34 35 36 35 32 30 27 25 24 24 21 18 14 14 14 13 13 12 12 12 12 12 13 13
7 3 8 10 10 14 17 14 19 8 3 2 3 4 4 16 21 20 13 10 26 29 38 38 37 38 38 39 38 35 32 30 27 26 25 22 20 16 14 13 13 15 11 13 13 13 13 13 14
10 8 15 14 12 13 17 19 17 16 2 5 3 8 15 17 11 7 0 7 10 11 41 40 40 39 38 37 37 39 36 34 30 28 27 24 20 16 13 12 14 16 15 15 15 13 12 14 15
17 19 17 16 17 18 20 18 15 22 13 5 4 8 8 6 8 8 7 9 13 16 8 35 39 39 39 38 38 40 38 37 32 30 28 24 21 17 16 17 18 15 17 15 15 12 13 14 10
21 22 19 19 20 21 22 18 19 19 16 5 15 17 9 9 9 8 10 12 19 23 17 12 28 38 41 39 38 38 36 34 34 33 30 24 22 18 18 14 12 17 16 14 15 13 13 15 13
23 18 19 21 22 23 21 23 21 21 21 14 12 9 10 9 9 17 19 16 22 18 14 10 10 28 38 40 38 36 36 35 30 27 27 26 25 23 20 17 17 15 13 14 15 16 14 12 16
12 16 20 18 20 21 24 24 22 22 13 16 18 20 11 9 11 8 15 21 17 10 11 14 13 21 36 43 40 39 35 35 30 27 24 26 28 23 15 13 16 17 14 15 13 12 14 13 12
18 20 21 24 20 21 21 29 28 15 14 19 17 18 13 10 12 11 23 15 10 12 16 15 14 18 33 41 39 35 32 31 31 27 25 28 25 20 18 14 11 11 14 15 15 16 17 17 16
18 16 21 21 22 23 18 34 15 17 18 19 15 18 13 10 9 17 14 10 11 14 18 13 12 19 34 42 28 25 24 24 26 25 20 21 20 19 17 14 15 13 11 13 14 16 18 17 19
12 21 23 24 24 16 13 28 20 17 20 24 21 20 18 12 11 13 14 11 12 18 15 16 19 26 35 37 36 22 19 21 18 16 17 16 17 18 16 17 16 15 14 15 14 15 15 18 19
11 21 25 26 13 17 20 27 28 26 22 22 22 20 19 14 11 13 19 16 15 10 16 18 26 28 32 29 28 20 16 15 15 13 12 14 16 17 17 16 12 15 15 13 13 15 15 16 17
18 22 18 17 18 16 18 25 26 18 11 16 18 13 10 9 10 15 24 12 15 16 19 23 27 29 31 29 26 23 19 17 16 12 14 15 15 16 16 12 13 13 13 15 15 13 13 13 13
23 24 21 14 12 17 21 20 25 21 17 23 22 11 12 8 7 7 6 16 15 17 19 22 27 30 30 29 24 22 19 16 15 19 18 18 18 17 15 13 12 12 12 11 11 12 11 11 13
26 26 18 21 12 19 11 12 19 16 15 12 12 11 7 10 10 10 8 16 21 21 22 21 22 29 25 26 21 17 17 16 18 15 22 18 18 16 12 11 11 11 11 12 12 13 14 12 14
24 13 21 18 12 20 5 14 19 16 20 16 12 9 9 9 9 9 9 10 20 21 20 20 23 26 22 22 21 14 17 12 11 13 15 17 12 9 10 11 10 9 10 11 11 10 13 14 12
23 15 18 12 17 16 16 6 27 8 12 9 10 16 14 13 11 10 13 15 23 24 25 24 26 24 20 17 17 15 12 4 10 9 11 11 10 12 11 11 10 10 9 10 10 10 12 13 11
17 17 18 15 12 14 17 12 31 18 20 7 9 12 12 11 9 12 16 22 22 26 26 25 23 21 16 15 17 12 10 8 13 12 10 9 8 9 11 11 10 9 7 8 7 7 9 11 13
13 13 8 8 11 17 12 10 22 5 14 20 15 16 11 10 11 18 18 15 19 23 27 24 23 17 19 13 16 11 9 9 7 3 3 3 4 6 9 13 11 9 7 7 5 8 8 9 10
13 13 10 14 11 16 7 15 12 13 18 18 20 15 10 7 15 17 18 15 20 23 26 24 21 20 18 14 12 9 8 5 3 5 4 2 2 5 5 10 8 7 7 7 8 6 5 6 5
21 18 13 17 15 6 6 19 23 26 26 19 17 6 8 12 17 17 15 13 22 24 26 26 25 21 18 15 14 11 9 6 5 4 2 2 3 5 7 9 8 7 9 8 8 6 5 6 5
14 11 8 9 18 16 8 14 12 16 16 19 9 11 11 16 17 15 13 14 22 25 28 27 25 23 19 18 15 12 10 8 6 5 3 4 5 6 9 9 8 10 6 10 6 3 4 6 7
7 17 13 7 11 11 11 12 14 10 8 9 10 10 18 17 18 17 14 18 23 25 27 27 26 23 21 18 15 13 11 7 5 6 5 4 5 8 9 9 10 10 10 9 5 5 6 8 6
18 19 16 9 9 11 6 11 7 11 5 9 11 11 19 19 18 16 17 16 20 20 26 27 27 23 23 17 16 13 11 10 8 7 6 5 6 9 10 8 8 9 10 8 5 4 8 6 3
Wind_Direction
283 272 343 283 43 98 257 256 233 350 338 294 38 75 68 72 105 153 165 173 171 166 170 171 171 170 167 166 165 165 165 163 160 155 153 153 155 159 163 171 175 175 170 183 187 198 256 276 289
220 114 290 279 121 163 265 231 252 183 239 12 311 120 64 67 97 122 134 176 168 166 172 174 175 176 174 172 171 175 176 172 168 163 161 165 167 169 175 186 191 196 201 204 207 221 236 251 268
176 214 30 185 195 214 244 353 229 157 36 280 315 155 111 130 117 128 156 163 163 167 175 178 179 183 181 179 178 182 183 179 178 175 175 176 182 185 194 208 208 210 216 222 226 232 241 245 250
169 244 308 250 257 271 255 274 10 111 122 305 285 58 46 111 108 132 154 162 161 167 177 185 186 189 188 186 186 188 188 189 188 186 187 188 192 194 219 231 228 226 230 236 241 240 243 248 249
236 265 241 236 248 257 256 259 230 191 170 277 229 172 126 67 111 125 150 163 166 173 181 191 194 195 195 194 193 194 193 196 197 196 197 198 201 206 220 231 235 242 243 242 248 259 248 244 245
268 188 272 242 260 259 272 278 204 205 196 243 110 135 129 125 124 139 155 168 176 181 192 188 194 200 202 204 204 202 201 201 203 205 202 204 206 213 225 231 239 247 249 243 248 253 257 252 251
240 326 234 262 267 284 284 344 311 330 7 49 77 86 148 135 142 159 168 185 183 187 193 189 190 198 206 208 211 211 210 210 208 210 208 208 209 216 228 243 249 244 246 242 245 247 252 251 258
218 253 278 271 276 285 296 314 298 63 345 105 100 58 180 204 163 170 195 193 201 189 194 196 195 197 202 207 209 213 214 217 218 217 215 213 213 221 236 254 253 245 244 240 243 254 255 251 251
231 230 255 250 254 275 299 324 312 323 44 344 67 27 305 159 174 188 207 247 204 187 197 198 198 202 203 205 210 211 215 219 222 225 224 222 220 224 245 250 249 247 233 236 245 255 262 265 258
220 226 235 245 258 276 295 297 302 314 207 235 357 337 304 271 176 222 170 268 301 267 199 205 202 205 204 207 210 212 211 214 219 224 227 228 231 239 240 244 250 242 236 239 244 258 267 258 260
236 238 241 258 258 264 270 279 305 301 303 235 57 264 294 249 192 202 226 262 269 281 232 212 211 211 205 203 210 213 213 215 217 224 228 233 236 236 238 241 242 242 231 229 241 252 256 253 251
243 237 239 249 263 272 272 278 276 281 283 220 204 228 246 253 255 261 261 275 284 272 268 239 220 214 209 202 202 209 209 211 217 224 226 227 230 233 231 236 251 235 225 234 239 240 252 249 246
238 247 240 243 247 254 269 272 269 273 281 292 300 270 269 252 240 239 241 250 267 249 271 278 250 219 218 201 200 206 207 212 210 219 221 218 221 223 239 250 246 216 217 225 233 239 243 240 251
263 254 257 251 243 248 257 264 264 260 266 288 285 285 271 263 260 248 234 246 243 243 257 268 255 231 216 200 197 204 207 212 208 208 210 210 213 224 225 242 239 225 233 228 225 236 228 216 233
263 266 271 262 258 248 255 261 253 272 278 274 264 268 264 268 253 252 252 239 220 261 273 245 251 241 215 200 195 199 203 205 204 201 202 205 211 215 226 238 239 251 242 236 238 241 241 246 245
259 259 255 256 261 254 253 262 273 274 277 275 274 282 269 267 260 277 245 222 263 277 255 242 228 214 204 192 172 179 187 191 184 180 180 189 200 216 224 238 244 253 238 244 254 247 243 242 242
235 239 249 250 237 252 249 274 271 271 261 254 256 263 265 250 259 260 231 244 261 279 247 198 192 194 197 196 194 179 175 181 161 185 197 200 210 219 233 233 245 252 256 262 259 250 244 241 240
217 227 236 246 239 238 244 255 264 263 259 260 264 259 249 235 238 256 247 246 262 230 201 198 185 190 188 182 187 183 165 176 193 196 185 196 215 221 225 225 244 247 257 255 255 254 243 242 242
246 239 252 244 244 263 256 258 268 268 262 268 263 260 222 221 239 257 258 237 148 153 158 167 176 178 172 166 164 172 169 164 167 182 207 216 206 206 214 230 232 251 254 255 258 242 245 233 232
244 260 262 263 246 247 247 257 256 253 253 250 256 248 238 235 211 211 205 162 155 144 143 153 163 167 169 164 162 171 179 181 204 219 214 213 205 214 229 250 244 244 253 248 241 231 223 229 206
232 238 248 256 285 279 286 290 285 283 273 262 252 247 221 220 222 235 153 155 149 148 146 149 152 158 155 159 162 165 175 196 207 213 220 203 211 223 240 232 236 251 243 240 241 226 217 205 207
242 234 238 253 241 254 209 272 264 266 264 266 263 263 252 240 223 224 148 155 151 146 145 148 151 152 149 159 163 163 162 143 170 206 203 205 201 223 228 222 241 242 238 245 247 242 225 216 209
253 225 257 257 246 261 254 269 266 215 254 248 256 253 255 257 232 230 160 144 142 144 141 143 148 152 152 162 164 153 143 146 166 156 153 168 200 218 212 235 225 229 241 252 249 225 215 217 215
263 243 244 257 261 263 249 222 267 242 250 251 243 250 242 237 224 128 127 129 132 137 138 143 150 153 155 140 162 163 177 101 126 136 141 168 213 235 234 223 220 229 245 239 221 211 216 218 224
260 233 248 236 231 239 222 243 235 251 235 239 242 248 251 240 138 136 138 136 135 133 141 147 147 147 157 127 150 137 128 118 128 143 144 181 242 246 230 220 219 230 235 201 209 194 216 231 237
255 235 220 214 217 244 236 241 238 241 261 240 247 244 244 233 136 144 140 139 136 136 143 146 147 145 154 141 134 143 148 171 186 167 145 184 214 218 217 191 195 214 201 183 188 211 211 214 209
251 251 246 250 279 225 234 240 262 258 258 256 245 224 118 107 135 135 134 136 135 140 145 152 149 153 158 156 151 156 166 153 152 166 208 175 169 184 184 188 192 186 180 194 201 182 183 179 181
235 259 249 224 235 254 242 250 256 263 257 236 215 156 131 132 129 128 135 134 137 144 150 155 156 162 163 154 157 171 172 182 161 151 148 148 160 167 167 169 179 166 171 176 173 159 163 165 161
267 238 240 279 220 232 255 257 263 274 202 173 182 160 148 146 141 140 137 135 142 144 150 158 161 163 154 157 174 179 170 162 162 143 158 157 155 160 157 164 171 168 168 174 166 164 171 163 163
285 266 232 228 250 232 243 246 248 270 172 152 188 148 149 145 141 140 138 138 141 139 151 157 161 160 155 165 176 168 165 157 143 148 154 149 154 161 158 155 170 166 168 170 164 163 193 169 162